[[{"header":{"parameterUnit":"m.s-1","parameterCategory":1,"la1":30.2991,"la2":30.254,"lo1":-89.0895,"lo2":-89.0444,"dy":0.0017,"dx":0.0017,"nx":28,"ny":28,"refTime":"2024-08-03T21:00:00:Z","depth":0,"parameterNumber":2,"parameterNumberName":"U-component_of_WINDS"},"data":[0,0,0,0,0,0,0,0,0,0,0,0,0,0,0,0,0,0,0,0,0,0,0,0,0,0,0,0,0,0,0,0,0,0,0,0,0,0,0,0,0,0,0,0,0,0,0,0,0,0,0,0,0,0,0,0,0,0,-2.702,-2.7021,0,-2.7112,-2.7113,-2.7114,-2.7109,-2.7108,-2.7106,-2.7105,-2.7193,-2.7196,-2.72,0,0,0,0,0,0,0,0,0,0,0,0,0,-2.6835,-2.6839,-2.702,-2.7022,-2.7023,-2.7112,-2.7113,-2.7114,-2.7109,-2.7108,-2.7106,-2.7105,-2.7191,-2.7196,-2.72,0,0,0,0,0,0,0,0,0,0,0,0,0,-2.692,-2.684,-2.702,-2.7031,-2.7033,-2.7112,-2.7113,-2.7115,-2.7109,-2.7108,-2.7106,-2.7104,-2.719,-2.7195,-2.7201,-2.7272,0,0,-2.7217,-2.7219,0,0,0,0,0,0,0,0,-2.6915,-2.6927,-2.7028,-2.703,-2.7033,-2.7097,-2.708,-2.7167,-2.711,-2.708,-2.7105,-2.7103,-2.7162,-2.717,-2.7191,-2.7277,-2.728,-2.7217,-2.722,-2.7223,-2.7224,0,0,0,0,0,0,0,-2.6909,-2.6923,-2.7056,-2.703,-2.7032,-2.7029,-2.7039,-2.7096,-2.7131,-2.7083,-2.7083,-2.7094,-2.7163,-2.7186,-2.7193,-2.7282,-2.7217,-2.7222,-2.7225,-2.7227,-2.7429,-2.7431,0,0,0,0,0,0,-2.6902,-2.6918,-2.7053,-2.7059,-2.6968,-2.7034,-2.7045,-2.7078,-2.713,-2.7136,-2.7095,-2.7093,-2.7178,-2.7187,-2.7196,-2.7282,-2.7223,-2.7228,-2.7231,-2.7427,-2.743,-2.7432,0,0,0,0,0,0,-2.6898,-2.6914,-2.705,-2.6989,-2.7006,-2.704,-2.7077,-2.7081,-2.7104,-2.714,-2.7145,-2.7113,-2.7176,-2.7188,-2.7254,-2.7285,-2.723,-2.7235,-2.7425,-2.7428,-2.7431,-2.7456,0,0,0,0,0,0,-2.6893,-2.6913,-2.6942,-2.6989,-2.7009,-2.7108,-2.7079,-2.7084,-2.7114,-2.7112,-2.7158,-2.7163,-2.7176,-2.7246,-2.7259,-2.7291,-2.7239,-2.7422,-2.7426,-2.743,-2.7452,-2.7459,-2.7466,0,0,0,0,0,-2.6886,-2.6944,-2.6943,-2.696,-2.7046,-2.711,-2.712,-2.7136,-2.7117,-2.7145,-2.7168,-2.7162,-2.728,-2.7252,-2.7267,-2.7302,-2.742,-2.7425,-2.743,-2.7449,-2.7458,-2.7465,0,0,0,0,0,0,-2.6897,-2.695,-2.695,-2.7025,-2.7063,-2.7109,-2.7145,-2.7145,-2.7187,-2.7183,-2.7198,-2.7208,-2.7273,-2.7294,-2.7263,-2.7373,-2.7347,-2.7355,-2.7357,-2.7366,-2.7372,-2.7365,-2.7243,0,0,0,0,0,-2.6908,-2.6957,-2.7001,-2.7063,-2.7082,-2.711,-2.7138,-2.7147,-2.7186,-2.7201,-2.7229,-2.7265,-2.731,-2.734,-2.7383,-2.7456,-2.7465,-2.7487,-2.7494,-2.7499,-2.7505,-2.7543,-2.7553,-2.7448,-2.7448,-2.7448,0,0,-2.6931,-2.6967,-2.6996,-2.7066,-2.7096,-2.7144,-2.7124,-2.7176,-2.7211,-2.7208,-2.7272,-2.7293,-2.7335,-2.7404,-2.7435,-2.7423,-2.7536,-2.7505,-2.7509,-2.7512,-2.7549,-2.7559,-2.7568,-2.7452,-2.7451,-2.745,0,0,-2.6998,-2.7031,-2.7086,-2.7117,-2.7164,-2.7183,-2.7196,-2.7242,-2.7257,-2.7321,-2.732,-2.7362,-2.744,-2.7469,-2.7494,-2.7573,-2.7568,-2.7587,-2.762,-2.7658,-2.7666,-2.7673,-2.7699,-2.7708,-2.7593,-2.7593,-2.7593,0,-2.702,-2.7095,-2.7114,-2.7166,-2.7196,-2.7199,-2.7253,-2.7282,-2.734,-2.7359,-2.7345,-2.7443,-2.7471,-2.7546,-2.7566,-2.7587,-2.76,-2.758,-2.7664,-2.7671,-2.7678,-2.7703,-2.7713,-2.7595,-2.7595,-2.7594,-2.7594,0,-2.7119,-2.7171,-2.7209,-2.7267,-2.7302,-2.7355,-2.7379,-2.7411,-2.7418,-2.7437,-2.7501,-2.7536,-2.7586,-2.7605,-2.7611,-2.768,-2.7671,-2.7661,-2.7634,-2.769,-2.7713,-2.7723,-2.7597,-2.7597,-2.7596,-2.7596,0,0,-2.7193,-2.7262,-2.7275,-2.7301,-2.7354,-2.7393,-2.7446,-2.7497,-2.7523,-2.7563,-2.7606,-2.7673,-2.7663,-2.7692,-2.7701,-2.7734,-2.7792,-2.7719,-2.772,-2.7729,-2.7868,-2.7874,-2.7885,-2.779,-2.7792,-2.7794,-2.7864,0,-2.7263,-2.7359,-2.7377,-2.7459,-2.7506,-2.751,-2.7556,-2.7592,-2.7611,-2.7652,-2.7674,-2.772,-2.7705,-2.7722,-2.7755,-2.7778,-2.7819,-2.7773,-2.7827,-2.7829,-2.7814,-2.7898,-2.7904,-2.7969,-2.7874,-2.7875,-2.7876,0,-2.7357,-2.7402,-2.7489,-2.7535,-2.7556,-2.7597,-2.7644,-2.7685,-2.7725,-2.7737,-2.777,-2.7775,-2.7828,-2.7801,-2.7873,-2.7841,-2.7865,-2.7879,-2.7882,-2.7885,-2.7854,-2.7901,-2.799,-2.7999,-2.7891,-2.789,-2.7889,0,-2.74,-2.7481,-2.7544,-2.7566,-2.7622,-2.765,-2.7675,-2.7714,-2.7743,-2.7784,-2.7803,-2.785,-2.7875,-2.791,-2.7927,-2.7906,-2.7996,-2.7972,-2.8005,-2.8005,-2.8022,-2.802,-2.8114,-2.8042,-2.8041,-2.8041,-2.8041,0,-2.7475,-2.7527,-2.7564,-2.7602,-2.766,-2.7681,-2.7737,-2.7761,-2.7795,-2.7836,-2.7843,-2.7881,-2.7903,-2.7943,-2.7957,-2.8013,-2.8025,-2.8034,-2.8036,-2.8032,-2.803,-2.8045,-2.804,-2.8044,-2.8043,-2.8043,-2.8042,0,-2.753,-2.7557,-2.7625,-2.7673,-2.7687,-2.7727,-2.7767,-2.7803,-2.7824,-2.7876,-2.7889,-2.7921,-2.7969,-2.7991,-2.805,-2.8059,-2.8122,-2.8122,-2.8108,-2.8109,-2.814,-2.8136,-2.8245,-2.8259,-2.818,-2.8181,-2.8181,0,-2.7575,-2.7616,-2.7669,-2.7698,-2.7723,-2.777,-2.7801,-2.7822,-2.7853,-2.7903,-2.7932,-2.7982,-2.8022,-2.8098,-2.8125,-2.817,-2.817,-2.8205,-2.8176,-2.817,-2.8167,-2.8163,-2.8167,-2.8209,-2.821,-2.821,-2.8211,0,-2.7651,-2.7662,-2.7707,-2.7757,-2.7794,-2.7834,-2.7872,-2.7895,-2.7923,-2.7957,-2.8008,-2.8039,-2.81,-2.8148,-2.8195,-2.8217,-2.8217,-2.822,-2.823,-2.8224,-2.8213,-2.8217,-2.812,-2.8217,-2.8216,-2.8216,-2.8215,-2.8215,-2.7701,-2.7737,-2.778,-2.7829,-2.7861,-2.7898,-2.7934,-2.796,-2.8003,-2.8056,-2.8066,-2.8119,-2.8157,-2.8221,-2.8245,-2.8285,-2.8277,-2.8291,-2.8294,-2.8297,-2.8298,-2.821,-2.8294,-2.8294,-2.8294,-2.8294,-2.8294,0,-2.7775,-2.7803,-2.7849,-2.7904,-2.7942,-2.7943,-2.7986,-2.8017,-2.8065,-2.8102,-2.8142,-2.8199,-2.8246,-2.8277,-2.8323,-2.8349,-2.8351,-2.8361,-2.8357,-2.8362,-2.8304,-2.829,-2.8359,-2.8359,-2.8359,-2.8359,-2.8359,-2.8359,-2.7818,-2.7878,-2.7895,-2.7971,-2.7998,-2.8052,-2.8076,-2.8109,-2.8139,-2.8203,-2.8242,-2.8263,-2.8297,-2.8347,-2.8389,-2.8396,-2.8412,-2.8422,-2.8429,-2.8373,-2.8366,-2.836,-2.8346,-2.8426,-2.8426,-2.8483,-2.8483,-2.8484]},{"header":{"parameterUnit":"m.s-1","parameterCategory":1,"la1":30.2991,"la2":30.254,"lo1":-89.0895,"lo2":-89.0444,"dy":0.0017,"dx":0.0017,"nx":28,"ny":28,"refTime":"2024-08-03T21:00:00:Z","depth":0,"parameterNumber":3,"parameterNumberName":"V-component_of_WINDS"},"data":[0,0,0,0,0,0,0,0,0,0,0,0,0,0,0,0,0,0,0,0,0,0,0,0,0,0,0,0,0,0,0,0,0,0,0,0,0,0,0,0,0,0,0,0,0,0,0,0,0,0,0,0,0,0,0,0,0,0,0.6933,0.6934,0,0.6978,0.6978,0.6979,0.7032,0.7033,0.7033,0.7034,0.7077,0.7078,0.7078,0,0,0,0,0,0,0,0,0,0,0,0,0,0.6887,0.6888,0.6933,0.6934,0.6934,0.6978,0.6978,0.6979,0.7032,0.7033,0.7034,0.7035,0.7077,0.7078,0.7078,0,0,0,0,0,0,0,0,0,0,0,0,0,0.6917,0.6888,0.6933,0.6966,0.6969,0.6978,0.6978,0.6979,0.7031,0.7033,0.7034,0.7035,0.7077,0.7078,0.7078,0.7057,0,0,0.708,0.708,0,0,0,0,0,0,0,0,0.6915,0.6919,0.696,0.6963,0.6967,0.7001,0.6978,0.7005,0.7031,0.7008,0.7034,0.7036,0.7051,0.7053,0.7059,0.7059,0.7061,0.708,0.708,0.7081,0.7081,0,0,0,0,0,0,0,0.6913,0.6917,0.6951,0.6961,0.6965,0.6976,0.6982,0.6984,0.7022,0.701,0.7014,0.7018,0.7053,0.7058,0.706,0.7062,0.708,0.708,0.7081,0.7081,0.7042,0.7041,0,0,0,0,0,0,0.6907,0.6915,0.6949,0.6952,0.6944,0.6976,0.6982,0.6989,0.7022,0.7028,0.7017,0.7021,0.7057,0.706,0.7062,0.7038,0.7081,0.7081,0.7081,0.7044,0.7042,0.7041,0,0,0,0,0,0,0.6906,0.6909,0.6948,0.6935,0.694,0.6976,0.6982,0.6989,0.6995,0.7028,0.7034,0.7017,0.7058,0.7061,0.7057,0.704,0.7081,0.7082,0.7045,0.7043,0.7041,0.6989,0,0,0,0,0,0,0.6904,0.6909,0.6903,0.6934,0.6941,0.6944,0.6981,0.6989,0.6996,0.7001,0.7029,0.7034,0.7059,0.7056,0.7058,0.7041,0.7082,0.7047,0.7045,0.7042,0.6993,0.6986,0.698,0,0,0,0,0,0.6902,0.6887,0.6902,0.6906,0.6934,0.6943,0.6946,0.6976,0.6994,0.6987,0.7008,0.7033,0.7041,0.7055,0.7058,0.7041,0.7048,0.7045,0.7042,0.6996,0.6987,0.698,0,0,0,0,0,0,0.6853,0.6892,0.6909,0.6904,0.6919,0.6952,0.6944,0.6967,0.6977,0.6981,0.7016,0.7022,0.7013,0.7027,0.7042,0.702,0.7048,0.7045,0.7012,0.7004,0.6998,0.6995,0.7083,0,0,0,0,0,0.6841,0.6846,0.6879,0.6871,0.6878,0.6909,0.6914,0.6935,0.6952,0.6959,0.698,0.6994,0.6999,0.7003,0.701,0.6995,0.7,0.6984,0.6977,0.6972,0.6969,0.6958,0.6951,0.7031,0.7031,0.7031,0,0,0.6818,0.6839,0.684,0.6861,0.6876,0.6878,0.6915,0.6916,0.6917,0.6959,0.6957,0.6971,0.6989,0.6979,0.6975,0.699,0.6948,0.6968,0.6963,0.6964,0.6954,0.6947,0.694,0.7028,0.7029,0.7029,0,0,0.6775,0.6793,0.6787,0.68,0.6821,0.6841,0.6839,0.6867,0.6879,0.6876,0.6907,0.6907,0.6917,0.6928,0.6935,0.6891,0.6914,0.6892,0.6858,0.6847,0.6841,0.6835,0.6818,0.6811,0.6889,0.6889,0.6889,0,0.6743,0.6749,0.678,0.6779,0.6786,0.6823,0.6815,0.6826,0.6848,0.6851,0.6867,0.6877,0.6892,0.6883,0.6872,0.6877,0.6874,0.6889,0.6839,0.6834,0.683,0.6813,0.6807,0.6886,0.6886,0.6886,0.6887,0,0.6707,0.671,0.6701,0.6721,0.6727,0.6723,0.6751,0.6753,0.6772,0.6789,0.6784,0.6803,0.6813,0.6812,0.6831,0.6804,0.6812,0.6833,0.6862,0.6819,0.6804,0.6798,0.6882,0.6883,0.6884,0.6884,0,0,0.6638,0.6672,0.6668,0.6676,0.67,0.6702,0.6697,0.6707,0.6706,0.6719,0.6714,0.6719,0.6738,0.6745,0.6765,0.6756,0.6716,0.6778,0.6778,0.6764,0.6684,0.6668,0.666,0.6731,0.673,0.6729,0.6682,0,0.6599,0.6595,0.662,0.6608,0.6609,0.6642,0.6637,0.6649,0.6664,0.6666,0.6682,0.6685,0.671,0.6714,0.6706,0.6723,0.67,0.6727,0.6725,0.6724,0.6719,0.6653,0.6637,0.6592,0.6676,0.6676,0.6675,0,0.6555,0.6564,0.6551,0.6572,0.6574,0.6569,0.6578,0.658,0.6593,0.6604,0.661,0.6633,0.6626,0.6653,0.6643,0.666,0.666,0.6668,0.6666,0.6668,0.6697,0.6651,0.6578,0.6571,0.6666,0.6667,0.6668,0,0.6503,0.6513,0.6505,0.6511,0.6536,0.6531,0.6541,0.6556,0.6558,0.6565,0.6567,0.6572,0.6575,0.6578,0.66,0.6618,0.6586,0.6616,0.6594,0.6593,0.6586,0.6587,0.6512,0.6587,0.6587,0.6587,0.6587,0,0.6458,0.6448,0.6482,0.6478,0.6467,0.6495,0.6482,0.6495,0.6507,0.6504,0.6532,0.6527,0.6557,0.6555,0.6572,0.6559,0.6561,0.6568,0.6573,0.6566,0.6564,0.6566,0.657,0.6585,0.6586,0.6586,0.6586,0,0.64,0.6423,0.6417,0.6439,0.6444,0.6435,0.6453,0.6448,0.6464,0.6459,0.6459,0.6483,0.6481,0.6503,0.6507,0.6517,0.6497,0.6507,0.6493,0.6496,0.6472,0.6473,0.6396,0.6386,0.6468,0.6467,0.6466,0,0.637,0.6363,0.6384,0.6384,0.6392,0.6391,0.6394,0.6419,0.642,0.6432,0.6425,0.6426,0.6428,0.6424,0.644,0.6442,0.6452,0.6424,0.6452,0.6444,0.6449,0.645,0.6448,0.6418,0.6417,0.6417,0.6416,0,0.6313,0.6323,0.6326,0.6331,0.6333,0.6338,0.6345,0.6343,0.637,0.6369,0.6368,0.6369,0.6371,0.6371,0.6374,0.6382,0.6402,0.6406,0.6401,0.6394,0.6385,0.6388,0.6476,0.6409,0.6409,0.641,0.641,0.6411,0.6267,0.6261,0.6274,0.6275,0.6282,0.6287,0.6283,0.6296,0.6296,0.63,0.6314,0.631,0.6318,0.6326,0.6331,0.6326,0.6339,0.6332,0.633,0.6328,0.6323,0.6385,0.6327,0.6327,0.6327,0.6327,0.6328,0,0.6211,0.6219,0.622,0.6228,0.6227,0.6246,0.6253,0.6251,0.6247,0.6254,0.6255,0.6251,0.6249,0.6264,0.6264,0.6257,0.6265,0.6255,0.6256,0.6257,0.6312,0.6316,0.6248,0.6248,0.6248,0.6248,0.6248,0.6248,0.6181,0.6171,0.6182,0.6175,0.6183,0.6179,0.6181,0.6185,0.619,0.6185,0.6184,0.6193,0.6201,0.6201,0.6199,0.6203,0.6201,0.6188,0.6195,0.6246,0.6254,0.6261,0.6265,0.6187,0.6187,0.614,0.614,0.6139]}]]